Elko, NV

8:32 AM PDT on July 20, 2017 (GMT -0700)
Elko Regional

Weather History for KEKO - March, 2013

Change the Weather History Date:

Thursday, March 21, 2013

  Actual Average Record
Temperature  
Mean Temperature 34 °F 40 °F  
Max Temperature 46 °F 53 °F 78 °F (2004)
Min Temperature 22 °F 27 °F -4 °F (1938)
Degree Days  
Heating Degree Days 31 25  
Month to date heating degree days 501 573  
Since 1 July heating degree days 5562 5741  
Cooling Degree Days 0 0  
Month to date cooling degree days 0 0  
Year to date cooling degree days 0 0  
Moisture  
Dew Point 23 °F    
Average Humidity 59    
Maximum Humidity 85    
Minimum Humidity 33    
Precipitation  
Precipitation 0.04 in 0.03 in 0.70 in (1995)
Month to date precipitation 0.36 0.68  
Year to date precipitation 1.61 2.64  
Snow  
Snow 0.40 in 0.20 in 4.20 in (1995)
Month to date snowfall 2.6 3.5  
Since 1 July snowfall 40.9 36.0  
Snow Depth T in    
Sea Level Pressure  
Sea Level Pressure 29.98 in    
Wind  
Wind Speed 6 mph (NW)    
Max Wind Speed 30 mph    
Max Gust Speed 37 mph    
Visibility 7 miles    
Events Snow    
T = Trace of Precipitation, MM = Missing Value Source: NWS Daily Summary

Daily Weather History Graph

Daily Weather History Graph

Search for Another Location

Airport or City:

Trip Planner

Search our weather history database for the weather conditions in past years. The results will help you decide how hot, cold, wet, or windy it might be!

Date:

Astronomy

Mar. 21, 2013 Rise Set
Actual Time 6:44 AM PDT 6:56 PM PDT
Civil Twilight 6:16 AM PDT 7:24 PM PDT
Nautical Twilight 5:44 AM PDT 7:56 PM PDT
Astronomical Twilight 5:12 AM PDT 8:29 PM PDT
Moon 1:28 PM PDT (3/21) 3:10 AM PDT (3/21)
Length of Visible Light 13h 07m
Length of Day
12h 12m
Waxing Gibbous, 69% of the Moon is Illuminated
Mar 21
Waxing Gibbous
Mar 27
Full
Apr 2
Last Quarter
Apr 10
New
Apr 18
First Quarter

Hourly Weather History & Observations

Time (PDT) Temp. Windchill Dew Point Humidity Pressure Visibility Wind Dir Wind Speed Gust Speed Precip Events Conditions
12:56 AM 45.0 °F 37.9 °F 26.1 °F 48% 29.77 in 10.0 mi WSW 16.1 mph - N/A   Mostly Cloudy
1:42 AM 35.6 °F 24.5 °F 30.2 °F 81% 29.91 in 4.0 mi NNW 20.7 mph 36.8 mph 0.00 in Snow Light Snow
1:45 AM 33.8 °F 22.2 °F 30.2 °F 87% 29.91 in 2.0 mi NNW 20.7 mph 34.5 mph 0.00 in Snow Light Snow
1:51 AM 33.8 °F 23.2 °F 28.4 °F 81% 29.91 in 0.8 mi NNW 17.3 mph 31.1 mph 0.00 in Snow Light Snow
1:52 AM 33.8 °F 23.2 °F 28.4 °F 81% 29.91 in 0.8 mi NNW 17.3 mph 31.1 mph 0.00 in Snow Light Snow
1:56 AM 33.1 °F 21.9 °F 28.9 °F 85% 29.88 in 0.8 mi NNW 18.4 mph 31.1 mph 0.00 in Snow Light Snow
2:05 AM 33.8 °F 22.8 °F 28.4 °F 81% 29.91 in 1.2 mi NNW 18.4 mph 28.8 mph 0.00 in Snow Light Snow
2:22 AM 32.0 °F 25.6 °F 28.4 °F 87% 29.92 in 2.0 mi North 6.9 mph 20.7 mph 0.02 in Snow Light Snow
2:30 AM 33.8 °F 23.2 °F 28.4 °F 81% 29.95 in 3.0 mi NNW 17.3 mph 24.2 mph 0.02 in Snow Light Snow
2:42 AM 33.8 °F 28.6 °F 26.6 °F 75% 29.95 in 1.8 mi Variable 5.8 mph 16.1 mph 0.02 in Snow Light Snow
2:56 AM 32.0 °F 28.7 °F 28.0 °F 85% 29.94 in 1.0 mi East 3.5 mph - 0.03 in Snow Light Snow
3:03 AM 32.0 °F 25.6 °F 28.4 °F 87% 29.95 in 1.2 mi ESE 6.9 mph - 0.00 in Snow Light Snow
3:14 AM 32.0 °F - 28.4 °F 87% 29.95 in 2.5 mi Calm Calm - 0.01 in Snow Light Snow
3:22 AM 32.0 °F - 28.4 °F 87% 29.95 in 5.0 mi Calm Calm - 0.01 in Snow Light Snow
3:52 AM 30.2 °F 26.7 °F 28.4 °F 93% 29.96 in 10.0 mi ENE 3.5 mph - 0.01 in   Overcast
3:56 AM 30.9 °F 27.5 °F 28.0 °F 89% 29.94 in 10.0 mi NE 3.5 mph - 0.01 in   Overcast
4:56 AM 30.0 °F 21.1 °F 21.9 °F 72% 29.96 in 10.0 mi NNW 10.4 mph - N/A   Clear
5:56 AM 26.1 °F - 19.9 °F 78% 30.01 in 10.0 mi Calm Calm - N/A   Clear
6:56 AM 25.0 °F 18.1 °F 18.0 °F 75% 30.04 in 10.0 mi WNW 5.8 mph - N/A   Clear
7:56 AM 28.0 °F - 21.0 °F 75% 30.06 in 10.0 mi Calm Calm - N/A   Clear
8:56 AM 30.9 °F 25.2 °F 18.0 °F 59% 30.06 in 10.0 mi NNW 5.8 mph - N/A   Clear
9:56 AM 33.1 °F 28.7 °F 19.9 °F 59% 30.08 in 10.0 mi NNE 4.6 mph - N/A   Clear
10:56 AM 35.1 °F 28.6 °F 19.9 °F 54% 30.07 in 10.0 mi WSW 8.1 mph - N/A   Partly Cloudy
11:56 AM 37.0 °F - 19.0 °F 48% 30.04 in 10.0 mi Calm Calm - N/A   Clear
12:56 PM 41.0 °F 34.3 °F 19.0 °F 41% 30.02 in 10.0 mi West 11.5 mph - N/A   Clear
1:56 PM 42.1 °F 35.7 °F 17.1 °F 37% 30.02 in 10.0 mi SW 11.5 mph 16.1 mph N/A   Clear
2:56 PM 43.0 °F 37.2 °F 16.0 °F 34% 30.01 in 10.0 mi West 10.4 mph 19.6 mph N/A   Clear
3:56 PM 45.0 °F 38.9 °F 17.1 °F 33% 30.00 in 10.0 mi WSW 12.7 mph 19.6 mph N/A   Partly Cloudy
4:56 PM 42.1 °F 40.2 °F 17.1 °F 37% 30.00 in 10.0 mi West 3.5 mph - N/A   Partly Cloudy
5:56 PM 42.1 °F 37.7 °F 16.0 °F 35% 30.01 in 10.0 mi West 6.9 mph - N/A   Clear
6:56 PM 39.9 °F 35.1 °F 19.0 °F 43% 30.02 in 10.0 mi North 6.9 mph - N/A   Clear
7:56 PM 35.1 °F - 19.0 °F 52% 30.01 in 10.0 mi Calm Calm - N/A   Clear
8:56 PM 34.0 °F 28.0 °F 19.9 °F 56% 30.03 in 10.0 mi NNW 6.9 mph - N/A   Clear
9:56 PM 30.9 °F 27.5 °F 19.0 °F 61% 30.04 in 10.0 mi NNW 3.5 mph - N/A   Clear
10:56 PM 26.1 °F - 18.0 °F 71% 30.04 in 10.0 mi Calm Calm - N/A   Clear
11:56 PM 26.1 °F - 19.0 °F 75% 30.04 in 10.0 mi Calm Calm - N/A   Clear